"Pseudo-MPEC" for A10nHge

Created 2020 Jul 3 0:07:03 UT using Find_Orb

Click here for an explanation of pseudo-MPECs

 
 Astrometry: 
     A10nHge  C2020 06 27.58137300 08 11.58 -31 31 11.9    ~6RI7 18.89oVNEOCPT08
     A10nHge  C2020 06 27.58691500 08 12.24 -31 31 12.8    ~6RI7 18.94oVNEOCPT08
     A10nHge  C2020 06 27.60453100 08 14.47 -31 31 17.7    ~6RI7 18.89oVNEOCPT08
     A10nHge  C2020 06 27.61237000 08 15.57 -31 31 19.7    ~6RI7 18.88oVNEOCPT08
     A10nHge 1C2020 06 28!mr;gAstrometryvf/cDredacted;g\V/to*HeA7aArx.^I5Uej8Q62
     A10nHge 1C2020 06 28_jh%clickSQI@hY*N4e9/V!*(Shere9@#(OhLQ1uo7N:IhtS_HA$Q62
     A10nHge 1C2020 06 29+4=5p(\M01\bvH8E9fFSih'BMP+lI?c^[3AqaQ\Why-j7S)#S6mAQ62
     A10nHge 1C2020 06 29riI-TH0N1o/xj[9Afor=pc$SS161d'X_SGbU/q#?Ehh.fXiT-P=#Q62
     A10nHge aC2020 06 30.KW?;h]vFwOG_*V0aP/OQav+HLL5')TCKlsKi#r(-)9o3HxQ@:\(Q62
     A10nHge aC2020 06 306g*=jVRK9`HdRBiuE$,explanationEqU2?T=:Hv9gV17b]P+o/'Q62
     A10nHge  C2020 07 01.56606100 17 05.01 -31 46 41.4    ~71FM 18.77oVNEOCPT08
     A10nHge  C2020 07 01.56891200 17 05.40 -31 46 42.2    ~71FM 18.61oVNEOCPT08
     A10nHge  C2020 07 01.57490000 17 06.21 -31 46 43.4    ~71FM 18.61oVNEOCPT08
     A10nHge  C2020 07 01.58603400 17 07.63 -31 46 46.6    ~71FM 18.95oVNEOCPT08
     A10nHge AC2020 07 01^*.3y%B1yvOmE)i^pIn\`Vsk2X`A`xLfS4SRnvGLG:qP]/`#\!3UQ62
     A10nHge AC2020 07 01lFh,gN*mn](jPR.w$/kv_N__hcviP+[Psgr!Lep/GLSw$aN(J?X/Q62

Station data:
(Q62) iTelescope Observatory, Siding Spring  (S31.273289 E149.064420)
   Australia/NSW. 0.50-m f/6.8 astrograph + CCD + focal reducer, 0.70-m f/6.6
   astrograph + CCD.
(T08) ATLAS-MLO, Mauna Loa  (N19.536152 W155.576050)  US/Hawaii.  Observers
   L. Denneau, A. Heinze, H. Weiland, J. Tonry, H. Flewelling, A.
   Fitzsimmons, D. Young, B. Stalder. Measurers L. Denneau, A. Heinze, J.
   Tonry. 0.5-m f/2.0 Schmidt + CCD.

Orbital elements:  A10nHge
   Perihelion 2020 Oct 25.332161 +/- 1.03 TT =  7:58:18 (JD 2459147.832161)
Epoch 2020 Jul  1.0 TT = JDT 2459031.5   Earth MOID: 0.3453   Ju: 0.8766
M 359.34981680 +/- 0.57             Sa: 0.6691   Ur: 0.9161   AutoNEOCP
n   0.00558902 +/- 0.00712          Peri.  327.31454 +/- 2.3
a  31.4469663 +/- 26.7              Node    71.63387 +/- 1.0
e   0.9591909 +/- 0.0346            Incl.   23.54951 +/- 0.23
P 176.35                   H 15.1   G  0.15   U  9.4  
q 1.28332021 +/- 0.0268    Q 61.6106124 +/- 956
From 16 observations 2020 June 27-July 1; mean residual 0".33
Residuals in arcseconds: 
200627 T08  .79+  .23+    200629 Q62  .02-  .12-    200701 T08  .18+  .04+    
200627 T08  .01-  .61+    200629 Q62  .11-  .00     200701 T08  .60-  .33-    
200627 T08  .83-  .25-    200630 Q62  .30+  .19+    200701 Q62  .19+  .13+    
200627 T08  .19+  .46-    200630 Q62  .22+  .01-    200701 Q62  .08+  .57+    
200628 Q62  .23+  .07-    200701 T08  .12-  .21-    
200628 Q62  .45-  .06-    200701 T08  .01+  .28-    

Ephemerides (geocentric):
Date (UTC) HH   RA              Dec         delta   r     elong  mag " sig PA
---- -- -- --  -------------   -----------  ------ ------ -----  --- ---- ---
2020 07 03 00  00 20 19.530   -31 52 33.98  1.5091 2.0597 107.7 18.8 .588   8
2020 07 03 01  00 20 25.212   -31 52 44.52  1.5084 2.0593 107.7 18.8 .608   8
2020 07 03 02  00 20 30.895   -31 52 55.07  1.5078 2.0589 107.7 18.8 .629   8
2020 07 03 03  00 20 36.580   -31 53 05.63  1.5071 2.0584 107.7 18.8 .650   8
2020 07 03 04  00 20 42.266   -31 53 16.20  1.5064 2.0580 107.7 18.8 .671   8
2020 07 03 05  00 20 47.953   -31 53 26.78  1.5057 2.0576 107.7 18.8 .693   8
2020 07 03 06  00 20 53.641   -31 53 37.37  1.5050 2.0572 107.8 18.8 .714   8
2020 07 03 07  00 20 59.331   -31 53 47.96  1.5043 2.0568 107.8 18.8 .736   7
2020 07 03 08  00 21 05.022   -31 53 58.57  1.5036 2.0563 107.8 18.8 .759   7
2020 07 03 09  00 21 10.714   -31 54 09.19  1.5029 2.0559 107.8 18.8 .781   7
2020 07 03 10  00 21 16.407   -31 54 19.82  1.5023 2.0555 107.8 18.8 .804   7
2020 07 03 11  00 21 22.102   -31 54 30.45  1.5016 2.0551 107.8 18.8 .827   7
2020 07 03 12  00 21 27.798   -31 54 41.10  1.5009 2.0546 107.8 18.8 .851   7
2020 07 03 13  00 21 33.496   -31 54 51.76  1.5002 2.0542 107.9 18.8 .874   7
2020 07 03 14  00 21 39.195   -31 55 02.42  1.4995 2.0538 107.9 18.8 .898   7
2020 07 03 15  00 21 44.895   -31 55 13.10  1.4988 2.0534 107.9 18.8 .923   6
2020 07 03 16  00 21 50.596   -31 55 23.78  1.4981 2.0530 107.9 18.8 .947   6
2020 07 03 17  00 21 56.299   -31 55 34.48  1.4975 2.0525 107.9 18.8 .972   6
2020 07 03 18  00 22 02.003   -31 55 45.18  1.4968 2.0521 107.9 18.8 1.00   6
2020 07 03 19  00 22 07.708   -31 55 55.90  1.4961 2.0517 107.9 18.8 1.02   6
2020 07 03 20  00 22 13.414   -31 56 06.62  1.4954 2.0513 108.0 18.8 1.05   6
2020 07 03 21  00 22 19.122   -31 56 17.36  1.4947 2.0509 108.0 18.8 1.07   6
2020 07 03 22  00 22 24.831   -31 56 28.10  1.4940 2.0504 108.0 18.8 1.10   6
2020 07 03 23  00 22 30.542   -31 56 38.85  1.4934 2.0500 108.0 18.8 1.13   6
2020 07 04 00  00 22 36.253   -31 56 49.62  1.4927 2.0496 108.0 18.8 1.15   6
2020 07 04 01  00 22 41.967   -31 57 00.39  1.4920 2.0492 108.0 18.8 1.18   5
2020 07 04 02  00 22 47.681   -31 57 11.17  1.4913 2.0487 108.1 18.8 1.21   5
2020 07 04 03  00 22 53.397   -31 57 21.97  1.4906 2.0483 108.1 18.8 1.23   5
2020 07 04 04  00 22 59.113   -31 57 32.77  1.4899 2.0479 108.1 18.8 1.26   5
2020 07 04 05  00 23 04.832   -31 57 43.58  1.4893 2.0475 108.1 18.8 1.29   5
2020 07 04 06  00 23 10.551   -31 57 54.40  1.4886 2.0471 108.1 18.8 1.32   5
2020 07 04 07  00 23 16.272   -31 58 05.23  1.4879 2.0466 108.1 18.8 1.35   5
2020 07 04 08  00 23 21.994   -31 58 16.07  1.4872 2.0462 108.1 18.8 1.38   5
2020 07 04 09  00 23 27.718   -31 58 26.92  1.4865 2.0458 108.2 18.8 1.41   5
2020 07 04 10  00 23 33.443   -31 58 37.78  1.4859 2.0454 108.2 18.8 1.44   5
2020 07 04 11  00 23 39.169   -31 58 48.65  1.4852 2.0450 108.2 18.8 1.46   5
2020 07 04 12  00 23 44.896   -31 58 59.53  1.4845 2.0445 108.2 18.8 1.49   5
2020 07 04 13  00 23 50.625   -31 59 10.42  1.4838 2.0441 108.2 18.7 1.53   4
2020 07 04 14  00 23 56.355   -31 59 21.32  1.4831 2.0437 108.2 18.7 1.56   4
2020 07 04 15  00 24 02.086   -31 59 32.23  1.4825 2.0433 108.2 18.7 1.59   4
2020 07 04 16  00 24 07.819   -31 59 43.15  1.4818 2.0428 108.3 18.7 1.62   4
2020 07 04 17  00 24 13.553   -31 59 54.07  1.4811 2.0424 108.3 18.7 1.65   4
2020 07 04 18  00 24 19.288   -32 00 05.01  1.4804 2.0420 108.3 18.7 1.68   4
2020 07 04 19  00 24 25.025   -32 00 15.96  1.4797 2.0416 108.3 18.7 1.71   4
2020 07 04 20  00 24 30.763   -32 00 26.91  1.4791 2.0412 108.3 18.7 1.75   4
2020 07 04 21  00 24 36.502   -32 00 37.88  1.4784 2.0407 108.3 18.7 1.78   4
2020 07 04 22  00 24 42.242   -32 00 48.85  1.4777 2.0403 108.3 18.7 1.81   4
2020 07 04 23  00 24 47.984   -32 00 59.84  1.4770 2.0399 108.4 18.7 1.84   4